Dewpoint
35 30 23 19 21 20 19 19 18 17 19 20 19 22 28 35 37 40 45 50 53 54 58 62 64 65 65 68 70 71 72 74 72 70 69 68 67 67 66 66 70 71 71 72
20 18 18 19 20 20 20 19 17 17 18 19 19 21 28 35 38 41 42 47 51 55 58 60 63 64 65 67 70 72 72 73 73 71 72 69 69 67 66 66 69 71 72 72
18 18 19 20 21 21 20 20 18 17 17 18 20 22 27 31 37 40 42 45 49 52 56 60 61 62 62 68 69 71 73 74 74 71 71 72 70 69 66 66 66 69 71 72
19 18 20 22 22 23 21 20 18 18 18 16 19 15 28 32 31 35 40 43 47 51 53 55 57 62 63 64 66 71 73 74 74 75 73 71 69 67 67 67 65 67 71 71
21 17 19 22 23 21 23 20 20 20 20 20 20 17 25 32 30 32 38 43 46 49 52 56 56 58 59 60 64 67 72 74 74 75 75 71 72 68 69 67 72 73 73 72
19 20 21 22 23 24 24 23 25 23 19 17 23 19 19 24 33 36 39 42 45 49 50 54 59 60 62 62 62 63 70 74 75 75 75 76 75 74 69 71 69 68 68 70
19 20 23 24 23 24 24 22 19 20 18 18 26 21 24 31 39 41 42 43 46 50 53 55 58 59 61 62 63 62 66 71 73 73 74 75 75 76 76 75 70 71 68 67
17 20 23 24 25 25 23 23 21 23 18 19 28 23 30 38 42 44 44 44 45 46 48 53 55 57 59 60 63 63 65 69 72 72 74 76 76 73 72 74 70 69 68 70
22 20 24 25 25 26 27 26 24 24 25 23 22 26 30 40 40 38 38 40 44 48 49 53 56 58 60 60 62 63 66 69 71 71 73 75 76 76 73 75 75 71 74 70
28 25 23 25 26 28 28 28 25 27 27 24 22 28 26 35 35 36 38 41 46 51 50 53 56 57 60 60 62 64 65 68 69 71 71 71 74 74 76 75 74 75 74 75
27 27 25 27 28 26 28 28 29 24 26 24 21 23 36 34 34 38 39 41 48 52 53 54 55 57 60 60 60 63 63 66 68 70 71 74 73 73 74 74 74 75 75 76
31 26 27 26 29 28 28 29 30 27 30 29 29 26 29 33 33 33 35 43 49 53 55 57 58 60 60 62 62 62 64 65 66 68 69 69 70 73 73 73 74 74 74 74
31 27 26 28 28 30 28 30 31 32 33 32 27 25 29 33 34 36 50 51 54 54 54 55 57 59 61 63 63 63 65 65 66 67 67 67 68 69 69 73 74 74 74 73
40 29 31 22 27 30 30 28 29 31 29 27 24 28 31 32 32 40 50 51 53 53 53 55 58 60 62 63 64 64 64 63 64 67 67 68 68 68 71 70 73 74 74 74
33 34 31 30 26 26 27 25 25 26 27 26 27 28 30 34 39 49 51 51 50 51 52 55 59 61 62 63 64 64 65 65 66 67 68 68 68 69 71 71 71 73 74 74
32 32 32 29 24 24 24 24 24 24 23 23 25 28 38 46 47 48 50 49 48 49 51 56 57 59 60 63 63 64 65 65 66 66 66 67 67 68 68 68 71 73 73 74
35 32 31 27 23 24 24 22 22 24 25 26 28 35 44 45 46 48 48 47 49 51 53 55 57 59 62 64 65 64 64 65 64 66 67 67 66 66 67 67 67 66 66 66
35 37 32 24 27 23 26 32 30 32 30 32 39 43 44 46 48 47 50 50 50 51 54 57 58 61 64 65 64 64 64 65 65 65 66 66 66 65 67 67 67 68 68 66
33 33 27 27 21 24 23 28 36 36 36 39 42 42 42 43 46 43 46 51 52 54 56 59 61 63 64 63 62 63 64 63 63 63 64 64 66 66 66 66 67 68 68 68
35 41 34 28 28 24 33 43 46 45 35 42 43 42 41 44 40 39 50 53 54 55 58 60 62 63 63 63 62 63 61 60 60 62 62 64 65 65 65 66 66 68 67 67
32 35 32 30 30 30 38 44 44 35 40 44 44 46 46 45 47 51 53 53 55 56 58 60 61 62 62 61 62 60 61 60 62 62 63 64 64 62 65 66 65 66 66 67
31 31 30 34 33 31 42 42 40 45 48 45 47 47 49 50 51 51 51 55 54 55 58 61 60 61 60 60 61 60 61 62 62 62 61 62 63 62 62 66 66 66 67 66
33 35 33 36 34 42 41 41 43 45 48 48 48 48 51 50 48 51 53 53 56 58 60 62 58 59 60 62 62 62 63 62 62 61 62 62 62 63 63 64 64 64 65 65
38 42 39 39 41 39 40 40 42 46 49 49 50 50 50 50 52 53 54 55 57 60 60 61 58 58 58 61 61 61 62 61 61 61 60 61 62 62 64 58 57 58 61 60
33 43 40 40 41 42 41 41 45 46 51 52 50 50 52 53 53 53 54 57 58 59 61 61 60 59 59 60 60 61 61 60 58 58 57 58 57 60 59 59 57 57 59 54
34 35 33 33 40 41 42 45 49 51 50 49 50 51 52 52 53 53 53 57 59 59 62 61 61 59 60 60 60 62 63 61 59 57 52 53 53 54 55 55 56 48 47 44
Lifted_Index
5 5 5 5 5 5 5 4 4 4 5 5 4 4 4 3 3 2 1 -1 -2 -3 -4 -6 -6 -6 -6 -7 -7 -7 -7 -7 -7 -6 -6 -6 -6 -6 -5 -5 -5 -5 -6 -6
5 5 5 6 6 5 5 4 4 4 4 4 4 4 4 3 2 2 1 0 -1 -2 -4 -5 -6 -6 -6 -7 -7 -7 -7 -7 -7 -6 -6 -6 -6 -6 -5 -5 -5 -5 -6 -6
5 5 6 6 6 5 5 4 4 4 4 3 3 3 3 3 2 2 1 1 -0 -1 -3 -4 -5 -6 -6 -7 -7 -8 -8 -8 -7 -7 -6 -6 -6 -6 -5 -5 -5 -5 -6 -6
5 6 6 6 5 5 4 5 4 4 3 2 2 2 2 2 2 2 1 1 0 -1 -2 -3 -4 -5 -5 -6 -6 -7 -8 -8 -8 -7 -7 -6 -6 -6 -5 -5 -5 -5 -6 -6
6 6 6 6 5 5 5 5 4 4 3 2 1 1 1 2 2 2 2 1 0 -0 -1 -3 -3 -4 -4 -5 -5 -7 -8 -8 -8 -8 -8 -7 -7 -7 -6 -5 -5 -6 -6 -6
5 6 6 6 6 5 5 4 3 3 2 1 1 1 1 1 2 2 1 1 0 -1 -2 -3 -4 -4 -5 -5 -5 -6 -7 -8 -9 -9 -8 -8 -8 -8 -7 -7 -7 -7 -6 -6
5 5 5 6 5 5 4 3 2 1 0 0 1 2 2 1 1 1 1 0 -0 -1 -2 -3 -3 -4 -4 -5 -5 -5 -6 -7 -8 -9 -9 -9 -9 -9 -9 -8 -8 -7 -7 -7
3 4 5 5 5 5 4 3 2 1 1 1 2 2 2 1 1 0 0 -0 -1 -1 -2 -2 -3 -3 -3 -4 -5 -5 -6 -7 -8 -8 -9 -9 -9 -9 -9 -9 -8 -8 -7 -7
3 4 5 5 5 4 4 4 3 2 2 2 2 2 2 1 1 1 1 0 -1 -1 -2 -2 -2 -3 -3 -4 -4 -5 -5 -6 -7 -8 -9 -9 -9 -9 -9 -9 -9 -9 -8 -8
4 4 5 5 5 5 4 4 4 3 2 2 1 1 2 2 1 1 1 0 -0 -1 -2 -2 -2 -3 -3 -3 -4 -4 -5 -6 -7 -8 -8 -8 -9 -9 -9 -9 -9 -9 -9 -9
4 4 4 5 5 5 5 4 4 3 3 2 2 2 2 2 2 2 1 1 -0 -1 -2 -2 -3 -3 -3 -3 -4 -4 -4 -5 -6 -7 -7 -8 -8 -8 -8 -9 -9 -9 -9 -9
5 4 4 4 5 5 5 4 4 4 3 3 3 3 3 3 3 3 2 1 -0 -1 -2 -2 -3 -3 -4 -4 -4 -4 -4 -4 -5 -6 -6 -7 -7 -7 -8 -8 -9 -9 -9 -9
5 5 4 4 5 5 5 5 4 4 4 4 4 4 3 3 4 3 1 -0 -1 -2 -2 -2 -3 -3 -4 -4 -4 -4 -4 -4 -4 -5 -5 -5 -6 -6 -7 -8 -8 -8 -8 -8
5 5 5 4 4 5 5 5 4 4 4 4 4 4 4 4 4 2 0 -1 -1 -1 -2 -2 -3 -4 -4 -5 -5 -5 -4 -4 -4 -4 -4 -5 -5 -6 -6 -7 -8 -8 -8 -8
5 5 5 5 5 5 5 5 5 5 4 4 4 4 4 3 2 1 -0 -1 -1 -1 -1 -2 -3 -4 -4 -5 -5 -5 -5 -4 -4 -4 -4 -4 -4 -5 -6 -6 -7 -8 -8 -8
5 5 5 5 5 5 5 5 5 5 5 4 4 3 2 2 1 0 -0 -0 -0 -1 -1 -2 -3 -4 -4 -4 -4 -4 -5 -5 -5 -4 -4 -3 -3 -4 -5 -6 -6 -7 -8 -8
5 5 5 5 5 5 5 5 5 4 4 4 3 2 1 0 0 -0 -0 0 -0 -1 -2 -2 -3 -3 -4 -4 -4 -4 -5 -5 -5 -5 -4 -4 -3 -3 -4 -5 -5 -6 -6 -7
5 5 5 5 5 4 4 4 4 3 3 2 1 1 0 0 -0 -0 -0 -0 -1 -1 -2 -2 -3 -3 -3 -4 -4 -4 -4 -4 -4 -5 -4 -4 -3 -3 -3 -4 -4 -4 -5 -5
5 5 5 5 4 4 4 3 2 2 2 1 1 0 0 -0 -0 -0 -0 -1 -1 -1 -2 -2 -3 -3 -3 -3 -3 -3 -3 -3 -3 -4 -4 -3 -3 -3 -3 -3 -3 -3 -4 -4
4 4 4 4 4 3 2 2 1 1 1 1 0 0 -0 -0 -1 -1 -1 -1 -1 -2 -2 -3 -3 -3 -3 -2 -2 -2 -2 -2 -2 -2 -3 -3 -3 -2 -2 -2 -2 -2 -2 -3
4 3 3 3 3 2 1 1 0 0 0 0 -0 -0 -1 -1 -1 -2 -2 -2 -2 -2 -2 -3 -3 -3 -2 -2 -1 -1 -1 -1 -1 -2 -2 -2 -2 -2 -2 -2 -1 -1 -2 -2
3 3 2 2 1 1 1 1 0 0 -0 -1 -1 -1 -2 -2 -2 -2 -2 -2 -2 -2 -3 -3 -3 -2 -1 -1 -1 -1 -1 -1 -1 -2 -2 -2 -2 -2 -2 -2 -2 -2 -2 -1
2 2 1 1 0 1 1 1 0 -0 -1 -2 -2 -2 -2 -2 -2 -2 -2 -2 -2 -2 -3 -3 -2 -1 -0 -0 -0 -0 -1 -1 -1 -1 -2 -2 -2 -2 -1 -1 -1 -2 -2 -1
1 1 0 0 0 0 1 1 0 -1 -2 -3 -3 -3 -3 -3 -3 -3 -2 -2 -2 -3 -3 -3 -2 -1 -0 0 0 0 -0 -1 -1 -1 -1 -1 -1 -1 -1 -0 -0 -0 -0 -0
0 0 0 0 0 0 0 -0 -1 -2 -3 -3 -3 -3 -3 -3 -3 -3 -2 -2 -2 -2 -3 -2 -2 -1 -0 0 1 1 0 -0 0 0 0 -0 -0 -0 -0 1 1 1 1 1
0 0 0 1 1 1 0 -1 -2 -3 -3 -3 -3 -3 -3 -3 -3 -2 -2 -2 -2 -2 -3 -3 -2 -1 -0 0 1 1 0 0 0 1 1 1 0 0 1 1 2 2 2 2